TimeEDT,TemperatureF,Dew PointF,Humidity,Sea Level PressureIn,VisibilityMPH,Wind Direction,Wind SpeedMPH,Gust SpeedMPH,PrecipitationIn,Events,Conditions,WindDirDegrees,DateUTC
12:15 AM,39.2,20.7,47,30.17,10.0,ENE,6.9,-,N/A,,Clear,60,2013-04-06 04:15:00
12:35 AM,39.2,20.8,48,30.17,10.0,NE,6.9,-,N/A,,Clear,50,2013-04-06 04:35:00
12:55 AM,38.3,20.8,50,30.18,10.0,NE,5.8,-,N/A,,Clear,50,2013-04-06 04:55:00
1:15 AM,38.3,21.0,50,30.17,10.0,NE,6.9,-,N/A,,Clear,50,2013-04-06 05:15:00
1:35 AM,37.6,21.2,52,30.17,10.0,NE,8.1,-,N/A,,Clear,50,2013-04-06 05:35:00
1:55 AM,37.4,21.6,53,30.18,10.0,NE,5.8,-,N/A,,Clear,50,2013-04-06 05:55:00
2:15 AM,36.7,21.9,55,30.19,10.0,NE,4.6,-,N/A,,Clear,50,2013-04-06 06:15:00
2:35 AM,36.0,22.1,57,30.19,10.0,NE,5.8,-,N/A,,Clear,50,2013-04-06 06:35:00
2:55 AM,35.6,22.1,58,30.18,10.0,ENE,5.8,-,N/A,,Clear,70,2013-04-06 06:55:00
3:15 AM,34.9,22.5,61,30.18,10.0,ENE,4.6,-,N/A,,Clear,70,2013-04-06 07:15:00
3:35 AM,34.5,22.5,61,30.19,10.0,ENE,3.5,-,N/A,,Clear,70,2013-04-06 07:35:00
3:55 AM,33.1,22.5,65,30.20,10.0,Calm,Calm,-,N/A,,Clear,0,2013-04-06 07:55:00
4:15 AM,32.2,22.5,67,30.19,10.0,East,4.6,-,N/A,,Clear,100,2013-04-06 08:15:00
4:35 AM,32.4,22.8,68,30.19,10.0,East,3.5,-,N/A,,Clear,90,2013-04-06 08:35:00
4:55 AM,32.0,22.1,67,30.19,10.0,East,3.5,-,N/A,,Clear,90,2013-04-06 08:55:00
5:15 AM,32.9,19.4,58,30.20,10.0,East,5.8,-,N/A,,Clear,90,2013-04-06 09:15:00
5:35 AM,32.0,19.4,60,30.21,10.0,East,3.5,-,N/A,,Clear,80,2013-04-06 09:35:00
5:55 AM,31.8,19.6,61,30.21,10.0,East,4.6,-,N/A,,Clear,90,2013-04-06 09:55:00
6:15 AM,31.8,19.6,61,30.21,10.0,East,5.8,-,N/A,,Clear,90,2013-04-06 10:15:00
6:35 AM,31.5,18.9,60,30.23,10.0,East,5.8,-,N/A,,Clear,100,2013-04-06 10:35:00
6:55 AM,30.4,19.2,63,30.22,10.0,East,5.8,-,N/A,,Clear,100,2013-04-06 10:55:00
7:15 AM,30.0,19.4,65,30.22,10.0,ESE,4.6,-,N/A,,Clear,110,2013-04-06 11:15:00
8:50 AM,35.6,17.6,48,30.20,10.0,ESE,4.6,-,N/A,,Clear,110,2013-04-06 12:50:00
11:47 AM,46.4,17.6,32,30.23,10.0,SE,11.5,-,N/A,,Clear,130,2013-04-06 15:47:00
12:47 PM,50.0,15.8,26,30.19,10.0,ESE,10.4,-,N/A,,Scattered Clouds,120,2013-04-06 16:47:00
1:55 PM,53.6,17.6,24,30.15,10.0,SE,12.7,19.6,N/A,,Mostly Cloudy,130,2013-04-06 17:55:00
2:47 PM,53.6,17.6,24,30.13,10.0,SE,10.4,-,N/A,,Overcast,130,2013-04-06 18:47:00
3:50 PM,55.4,19.4,25,30.09,10.0,SSE,9.2,-,N/A,,Overcast,150,2013-04-06 19:50:00
4:50 PM,57.2,21.2,25,30.06,10.0,ESE,9.2,-,N/A,,Scattered Clouds,120,2013-04-06 20:50:00
5:50 PM,60.8,23.0,23,30.04,10.0,SSE,12.7,19.6,N/A,,Scattered Clouds,150,2013-04-06 21:50:00
6:50 PM,59.0,23.0,25,30.01,10.0,SE,8.1,-,N/A,,Clear,130,2013-04-06 22:50:00
7:35 PM,57.7,24.6,28,29.99,10.0,SE,8.1,-,N/A,,Clear,130,2013-04-06 23:35:00
7:55 PM,57.4,24.1,28,29.99,10.0,SE,6.9,-,N/A,,Clear,130,2013-04-06 23:55:00
8:15 PM,56.8,23.5,28,29.98,10.0,ESE,6.9,-,N/A,,Clear,120,2013-04-07 00:15:00
8:35 PM,56.7,23.2,27,29.97,10.0,SE,5.8,-,N/A,,Clear,130,2013-04-07 00:35:00
8:55 PM,56.3,23.5,28,29.96,10.0,ESE,9.2,-,N/A,,Clear,120,2013-04-07 00:55:00
9:15 PM,56.3,23.5,28,29.96,10.0,ESE,8.1,-,N/A,,Clear,120,2013-04-07 01:15:00
9:35 PM,55.8,24.1,29,29.96,10.0,SE,5.8,-,N/A,,Clear,130,2013-04-07 01:35:00
9:55 PM,54.3,24.8,32,29.97,10.0,SE,4.6,-,N/A,,Clear,130,2013-04-07 01:55:00
10:15 PM,53.6,25.2,33,29.96,10.0,SE,5.8,-,N/A,,Clear,130,2013-04-07 02:15:00
10:35 PM,52.7,25.3,35,29.96,10.0,SE,4.6,-,N/A,,Clear,130,2013-04-07 02:35:00
10:55 PM,52.0,24.3,34,29.95,10.0,SE,4.6,-,N/A,,Clear,130,2013-04-07 02:55:00
11:15 PM,51.6,23.7,34,29.94,10.0,SE,5.8,-,N/A,,Clear,140,2013-04-07 03:15:00
11:35 PM,50.9,24.3,35,29.94,10.0,South,4.6,-,N/A,,Clear,170,2013-04-07 03:35:00
11:55 PM,50.4,25.2,37,29.94,10.0,SSE,6.9,-,N/A,,Clear,160,2013-04-07 03:55:00